Ely, NV

5:51 AM PDT on May 30, 2017 (GMT -0700)
Ely

Weather History for KELY - January, 2013

Change the Weather History Date:

Tuesday, January 8, 2013

  Actual Average Record
Temperature  
Mean Temperature 25 °F 25 °F  
Max Temperature 43 °F 39 °F 58 °F (1990)
Min Temperature 6 °F 11 °F -17 °F (1964)
Degree Days  
Heating Degree Days 40 40  
Month to date heating degree days 420 320  
Since 1 July heating degree days 3058 3420  
Cooling Degree Days 0 0  
Month to date cooling degree days 0 0  
Year to date cooling degree days 0 0  
Moisture  
Dew Point 14 °F    
Average Humidity 73    
Maximum Humidity 92    
Minimum Humidity 53    
Precipitation  
Precipitation 0.00 in 0.02 in 0.30 in (1907)
Month to date precipitation 0.00 0.19  
Year to date precipitation 0.00 0.19  
Snow  
Snow 0.00 in 0.30 in 3.00 in (1907)
Month to date snowfall 0.0 2.6  
Since 1 July snowfall 33.8 20.5  
Snow Depth 8.00 in    
Sea Level Pressure  
Sea Level Pressure 30.39 in    
Wind  
Wind Speed 9 mph (South)    
Max Wind Speed 16 mph    
Max Gust Speed 20 mph    
Visibility 10 miles    
Events      
T = Trace of Precipitation, MM = Missing Value Source: NWS Daily Summary

Daily Weather History Graph

Daily Weather History Graph

Search for Another Location

Airport or City:

Trip Planner

Search our weather history database for the weather conditions in past years. The results will help you decide how hot, cold, wet, or windy it might be!

Date:

Astronomy

Jan. 08, 2013 Rise Set
Actual Time 6:59 AM PST 4:33 PM PST
Civil Twilight 6:29 AM PST 5:03 PM PST
Nautical Twilight 5:56 AM PST 5:36 PM PST
Astronomical Twilight 5:23 AM PST 6:09 PM PST
Moon 3:37 AM PST (1/8) 1:39 PM PST (1/8)
Length of Visible Light 10h 33m
Length of Day
9h 34m
Waning Crescent, 13% of the Moon is Illuminated
Jan 8
Waning Crescent
Jan 11
New
Jan 18
First Quarter
Jan 26
Full
Feb 3
Last Quarter

Hourly Weather History & Observations

Time (PST) Temp. Windchill Dew Point Humidity Pressure Visibility Wind Dir Wind Speed Gust Speed Precip Events Conditions
12:53 AM 8.1 °F -5.3 °F 3.9 °F 83% 30.32 in 10.0 mi South 9.2 mph - N/A   Clear
1:53 AM 9.0 °F -7.3 °F 5.0 °F 84% 30.30 in 10.0 mi South 13.8 mph - N/A   Clear
2:53 AM 8.1 °F -5.3 °F 3.9 °F 83% 30.32 in 10.0 mi South 9.2 mph - N/A   Clear
3:53 AM 8.6 °F -7.7 °F 5.0 °F 85% 30.19 in 10.0 mi South 13.8 mph - N/A   Clear
4:53 AM 6.1 °F -9.5 °F 3.0 °F 87% 30.40 in 10.0 mi South 11.5 mph - N/A   Clear
5:53 AM 8.1 °F -9.0 °F 5.0 °F 87% 30.40 in 10.0 mi South 15.0 mph - N/A   Clear
6:53 AM 8.1 °F -9.0 °F 3.9 °F 83% 30.43 in 10.0 mi South 15.0 mph - N/A   Clear
7:53 AM 10.0 °F -5.9 °F 6.1 °F 84% 30.43 in 10.0 mi South 13.8 mph - N/A   Clear
8:53 AM 16.0 °F 2.9 °F 10.9 °F 81% 30.45 in 10.0 mi South 11.5 mph - N/A   Clear
9:53 AM 21.9 °F 12.5 °F 15.1 °F 75% 30.44 in 10.0 mi South 8.1 mph - N/A   Clear
10:53 AM 30.0 °F 24.1 °F 21.9 °F 72% 30.37 in 10.0 mi South 5.8 mph - N/A   Clear
11:53 AM 37.9 °F 35.5 °F 25.0 °F 60% 30.32 in 10.0 mi NNW 3.5 mph - N/A   Clear
12:53 PM 39.9 °F 36.7 °F 27.0 °F 60% 30.32 in 10.0 mi North 4.6 mph - N/A   Clear
1:53 PM 42.1 °F - 27.0 °F 55% 30.31 in 10.0 mi Calm Calm - N/A   Clear
2:53 PM 37.9 °F 35.5 °F 28.0 °F 68% 30.35 in 10.0 mi SSW 3.5 mph - N/A   Clear
3:53 PM 37.0 °F 34.5 °F 27.0 °F 67% 30.36 in 10.0 mi SE 3.5 mph - N/A   Clear
4:53 PM 25.0 °F - 21.0 °F 85% 30.44 in 10.0 mi Calm Calm - N/A   Clear
5:53 PM 25.0 °F 14.8 °F 21.0 °F 85% 30.45 in 10.0 mi South 10.4 mph - N/A   Clear
6:53 PM 21.0 °F 9.9 °F 18.0 °F 88% 30.48 in 10.0 mi South 10.4 mph - N/A   Clear
7:53 PM 19.9 °F 6.7 °F 17.1 °F 89% 30.51 in 10.0 mi South 13.8 mph - N/A   Clear
8:53 PM 15.8 °F 1.4 °F 12.2 °F 86% 30.33 in 10.0 mi SSE 13.8 mph - N/A   Clear
9:53 PM 12.0 °F 0.5 °F 10.0 °F 92% 30.50 in 10.0 mi South 8.1 mph - N/A   Clear
10:53 PM 12.9 °F -0.9 °F 10.9 °F 92% 30.45 in 10.0 mi SSE 11.5 mph - N/A   Clear
11:53 PM 14.0 °F 3.9 °F 10.4 °F 86% 30.34 in 10.0 mi SW 6.9 mph - N/A   Clear